Content
SEND FEEDBACK

Daily
Averages
Monthly
Summary
United States of America

DEDEDO, GUAM


Home > North America > United States > Guam
Elevation: 111 meters     Latitude: 13 33N     Longitude: 144 49E

WEATHER
 
SELECT A DAY
Number of Records: 213,129;   Date Range: 1/1/95 - 10/1/14
 
SHARE

PRINT THIS DATA

[ ← Previous Day ]
WEATHER ALMANAC - 29 APRIL, 2013
[ Next Day → ]
[ °F ]   °C
Weather ElementAverageHighLow
Temperature29.1 °C31.7 °C (12:54 pm)27.2 °C (3:54 am)
Dewpoint23.3 °C24.4 °C (1:54 am)22.8 °C (11:54 am)
Humidity71.5 %85 % (3:54 am)61 % (12:54 pm)
Barometer1012.2 hPa1014.2 hPa (10:01 am)1010.2 hPa (2:54 pm)
Wind Speed15.8 km/h22.2 km/h (10:01 am)
Wind Gust33.3 km/h (12:54 pm)
Weather ElementAverage
Visibility16.1 km
Wind DirectionENE (82.7 °)

Weather ElementTotal
Precipitation0.51 mm
Cooling Degree Days11.2 (Base 18.3)
Growing Degree Days19.5 (Base 10)
Averaged from 26 records on 29 April, 2013
WEATHER CONDITIONS BREAKOUT
WIND DIRECTION BREAKOUT
WEATHER BY HOUR - 29 APRIL, 2013
[ °F ]   °C
Local TimeTemperatureDewpointHumidityBarometerVisibilityWind DirectionWind SpeedGust SpeedPrecipitationEventsConditions
1:54 AM27.8 °C24.4 °C82 %1012.2 hPa16.1 kmENE (70°)14.8 km/h0 mmClear
2:54 AM27.8 °C24.4 °C82 %1011.5 hPa16.1 kmENE (60°)14.8 km/h0.25 mmPartly Cloudy
3:54 AM27.2 °C24.4 °C85 %1011.5 hPa16.1 kmENE (70°)14.8 km/h0.25 mmMostly Cloudy
4:54 AM27.2 °C24.4 °C85 %1011.9 hPa16.1 kmEast (80°)11.1 km/hPartly Cloudy
5:54 AM27.2 °C23.9 °C82 %1012.2 hPa16.1 kmNE (50°)13 km/hMostly Cloudy
6:54 AM27.2 °C23.9 °C82 %1012.2 hPa16.1 kmEast (80°)9.3 km/hPartly Cloudy
7:54 AM28.3 °C23.3 °C74 %1012.9 hPa16.1 kmEast (100°)11.1 km/hClear
8:54 AM28.9 °C23.3 °C72 %1012.9 hPa16.1 kmESE (110°)18.5 km/hScattered Clouds
9:54 AM30 °C23.3 °C67 %1013.2 hPa16.1 kmEast (100°)16.7 km/hScattered Clouds
10:01 AM29 °C23 °C70 %1014.2 hPa16.1 kmEast (100°)22.2 km/h29.6 km/hMostly Cloudy
10:13 AM30 °C23 °C66 %1013.9 hPa16.1 kmEast (90°)20.4 km/h27.8 km/hScattered Clouds
10:54 AM30.6 °C23.3 °C65 %1012.9 hPa16.1 kmEast (90°)18.5 km/h31.5 km/hScattered Clouds
11:54 AM30.6 °C22.8 °C63 %1012.9 hPa16.1 kmEast (100°)22.2 km/hPartly Cloudy
12:54 PM31.7 °C23.3 °C61 %1011.2 hPa16.1 kmEast (80°)20.4 km/h33.3 km/hScattered Clouds
1:54 PM30.6 °C23.3 °C65 %1010.8 hPa16.1 kmEast (100°)22.2 km/hScattered Clouds
2:39 PM31 °C23 °C62 %1011.2 hPa16.1 kmEast (90°)22.2 km/hMostly Cloudy
2:54 PM31.1 °C23.3 °C63 %1010.2 hPa16.1 kmEast (100°)18.5 km/h33.3 km/hScattered Clouds
3:54 PM31.1 °C22.8 °C61 %1010.2 hPa16.1 kmEast (90°)22.2 km/hScattered Clouds
4:54 PM30.6 °C22.8 °C63 %1010.2 hPa16.1 kmEast (90°)18.5 km/hScattered Clouds
5:54 PM30 °C22.8 °C65 %1010.8 hPa16.1 kmEast (80°)16.7 km/hClear
6:54 PM28.9 °C23.3 °C72 %1011.9 hPa16.1 kmENE (70°)11.1 km/hPartly Cloudy
7:54 PM28.3 °C23.3 °C74 %1012.5 hPa16.1 kmEast (80°)11.1 km/hPartly Cloudy
8:54 PM28.3 °C23.3 °C74 %1013.2 hPa16.1 kmEast (80°)9.3 km/hClear
9:54 PM28.3 °C22.8 °C72 %1013.9 hPa16.1 kmENE (60°)9.3 km/hPartly Cloudy
10:54 PM27.2 °C22.8 °C77 %1014.2 hPa16.1 kmENE (60°)9.3 km/hClear
11:54 PM27.8 °C23.3 °C76 %1013.9 hPa16.1 kmENE (70°)11.1 km/hClear
Hourly data recorded from PGUM, located 0 kilometers away from Dededo, Guam







STORIES FROM OUR PARTNERS